Content
SEND FEEDBACK

Daily
Averages
Monthly
Summary
United States of America

ROOSEVELT, OKLAHOMA


Home > North America > United States > Oklahoma
Elevation: 1460 feet     Latitude: 34 51N     Longitude: 099 01W

WEATHER
 
SELECT A DAY
Number of Records: 335,819;   Date Range: 1/1/95 - 7/26/14
 
SHARE

PRINT THIS DATA

[ ← Previous Day ]
WEATHER ALMANAC - JANUARY 31, 2013
[ Next Day → ]
[ °C ]   °F
Weather ElementAverageHighLow
Temperature38.5 °F64 °F (2:53 pm)25 °F (6:53 am)
Dewpoint21.1 °F28.9 °F (4:53 pm)12.9 °F (3:53 am)
Humidity53.3 %75 % (10:53 pm)21 % (1:53 pm)
Barometer30.17 in30.38 in (8:53 pm)30.06 in (2:53 am)
Wind Speed12.7 mph26.5 mph (4:53 pm)
Wind Gust35.7 mph (4:53 pm)
Weather ElementAverage
Visibility10 mi
Wind DirectionSSE (154.8 °)

Weather ElementTotal
Precipitation---
Heating Degree Days20.5 (Base 65)
Averaged from 23 records on January 31, 2013
WEATHER CONDITIONS BREAKOUT
WIND DIRECTION BREAKOUT
WEATHER BY HOUR - JANUARY 31, 2013
[ °C ]   °F
Local TimeTemperatureDewpointHumidityBarometerVisibilityWind DirectionWind SpeedGust SpeedPrecipitationEventsConditions
1:53 AM27.0 °F16.0 °F63 %30.07 in10.0 miWNW (290°)4.6 mphClear
2:53 AM28.9 °F15.1 °F56 %30.06 in10.0 miNNW (330°)4.6 mphClear
3:53 AM28.9 °F12.9 °F51 %30.06 in10.0 miCalmClear
4:53 AM28.9 °F17.1 °F61 %30.06 in10.0 miSSW (210°)12.7 mphClear
5:53 AM27.0 °F17.1 °F66 %30.07 in10.0 miVariable3.5 mphClear
6:53 AM25.0 °F17.1 °F72 %30.07 in10.0 miSSW (210°)5.8 mphClear
7:53 AM28.0 °F18.0 °F66 %30.08 in10.0 miSSW (200°)12.7 mphClear
8:53 AM33.1 °F18.0 °F54 %30.12 in10.0 miWSW (250°)8.1 mphClear
9:53 AM37.9 °F19.0 °F47 %30.13 in10.0 miWNW (300°)8.1 mphClear
10:53 AM44.1 °F19.9 °F38 %30.12 in10.0 miWNW (300°)3.5 mphClear
11:53 AM51.1 °F24.1 °F35 %30.12 in10.0 miWest (260°)3.5 mphClear
12:53 PM57.0 °F24.1 °F28 %30.10 in10.0 miWest (270°)9.2 mphClear
1:53 PM61.0 °F21.0 °F21 %30.08 in10.0 miNNW (340°)6.9 mphClear
2:53 PM64.0 °F26.1 °F24 %30.07 in10.0 miNE (50°)8.1 mphClear
3:53 PM59.0 °F27.0 °F29 %30.13 in10.0 miENE (60°)23.0 mph29.9 mphClear
4:53 PM51.1 °F28.9 °F43 %30.21 in10.0 miENE (60°)26.5 mph35.7 mphClear
5:53 PM45.0 °F27.0 °F49 %30.28 in10.0 miENE (60°)23.0 mph27.6 mphClear
6:53 PM39.9 °F27.0 °F60 %30.32 in10.0 miENE (60°)18.4 mphClear
7:53 PM36.0 °F26.1 °F67 %30.36 in10.0 miENE (60°)21.9 mph27.6 mphClear
8:53 PM32.0 °F24.1 °F73 %30.38 in10.0 miENE (60°)23.0 mphClear
9:53 PM28.9 °F21.0 °F72 %30.38 in10.0 miENE (60°)25.3 mph33.4 mphClear
10:53 PM27.0 °F19.9 °F75 %30.37 in10.0 miENE (70°)21.9 mph27.6 mphClear
11:53 PM25.0 °F18.0 °F75 %30.38 in10.0 miENE (60°)17.3 mphClear
Hourly data recorded from KHBR, located miles away from Roosevelt, Oklahoma







STORIES FROM OUR PARTNERS